sat.trackr.live / text

‹ back to catalog

STARLINK-34625

NORAD 66154 · 2025-240J

PAYLOAD ACTIVE UNKNOWN

§ Identity

Operator
Country
US
Launch date
2025-10-25
Launch site
AFWTR
Launch vehicle
Mass (kg)
RCS (m²)

Purposes: comms

External: N2YO · Heavens-Above · Gunter

§ Orbital elements

Epoch: 2026-09-20T08:30:27.986112Z

Period
93.85 min
Inclination
53.1561°
Eccentricity
0.0001233
Mean motion
15.34406668 rev/d
Perigee alt
461.8 km
Apogee alt
463.5 km
Semi-major
6,840.8 km
B*
2.9700e-4
RAAN
236.4093°
Arg perigee
90.2852°
Mean anomaly
269.8292°
Rev number
5,187

§ Raw data

STARLINK-346251 66154U 25240J   26263.35449058  .00009673  00000+0  29700-3 0  99972 66154  53.1561 236.4093 0001233  90.2852 269.8292 15.34406668 51879

JSON: /api/v1/satellites/66154 · /tle

For live sub-satellite position, see the globe view (requires WebGL).

§ Visibility from observer

Set your observer location to see the next 7 days of passes ≥ 10°. The values pass through the URL so the page stays shareable.

No JS? Fill the form by hand. The geolocation button needs JavaScript.